Tracking 28096 objects as of 28-Sep-2023
HD Live streaming from Space Station
objects crossing your sky now

FLOCK 4Y 13

Track FLOCK 4Y 13 now!
10-day predictions
FLOCK 4Y 13 is classified as:


NORAD ID: 55079
Int'l Code: 2023-001BY
Perigee: 502.6 km
Apogee: 522.9 km
Inclination: 97.5 °
Period: 94.7 minutes
Semi major axis: 6883 km
RCS: Unknown
Launch date: January 3, 2023
Source: United States (US)
Launch site: AIR FORCE EASTERN TEST RANGE (AFETR)
Your satellite tracking list
Your tracking list is empty




NASA's NSSDC Master Catalog

Two Line Element Set (TLE):
1 55079U 23001BY  23270.12083873  .00014380  00000-0  66663-3 0  9994
2 55079  97.4697 329.0010 0014716  22.5836 337.6044 15.20080196 40564
Source of the keplerian elements: AFSPC